DW9882 Weather Reports


Display with metric or nautical units.
time (UTC)temp
F
wind
direction
speed
MPH
gust
MPH
rain 1hr
in
rain 24hr
in
rain mn
in
humidity
%
barometer
mb
20260902090204 59 191 0.0 0.0 0.00 0.00 0.00 69 1019.4
20260902085704 60 191 0.0 0.0 0.00 0.00 0.00 69 1019.3
20260902085204 60 191 0.0 0.0 0.00 0.00 0.00 69 1019.3
20260902084705 60 191 0.0 0.0 0.00 0.00 0.00 69 1019.3
20260902084204 60 191 0.0 0.0 0.00 0.00 0.00 69 1019.3
20260902083704 60 191 0.0 0.0 0.00 0.00 0.00 68 1019.3
20260902083204 60 191 0.0 1.0 0.00 0.00 0.00 68 1019.3
20260902082704 61 191 0.0 0.0 0.00 0.00 0.00 68 1019.3
20260902082205 61 191 0.0 0.0 0.00 0.00 0.00 68 1019.3
20260902081204 61 191 0.0 0.0 0.00 0.00 0.00 67 1019.3
20260902080704 61 191 0.0 0.0 0.00 0.00 0.00 66 1019.3
20260902080204 62 191 0.0 0.0 0.00 0.00 0.00 66 1019.3
20260902075704 62 191 0.0 0.0 0.00 0.00 0.00 64 1019.3
20260902075204 62 191 0.0 0.0 0.00 0.00 0.00 64 1019.3
20260902074704 63 191 0.0 0.0 0.00 0.00 0.00 64 1019.3
20260902074204 63 191 0.0 0.0 0.00 0.00 0.00 64 1019.4
20260902073704 63 191 0.0 0.0 0.00 0.00 0.00 63 1019.4
20260902073204 63 191 0.0 0.0 0.00 0.00 0.00 62 1019.4
20260902072704 63 191 0.0 0.0 0.00 0.00 0.00 62 1019.4
20260902072205 64 191 0.0 0.0 0.00 0.00 0.00 62 1019.4
20260902071704 64 191 0.0 0.0 0.00 0.00 0.00 61 1019.4
20260902071204 64 191 0.0 0.0 0.00 0.01 0.00 62 1019.3
20260902070205 64 191 1.0 2.0 0.00 0.01 0.00 62 1019.2
20260902065704 64 191 0.0 2.0 0.00 0.01 0.00 61 1019.2
20260902064704 64 191 0.0 0.0 0.00 0.01 0.00 61 1019.2
20260902063705 64 191 0.0 1.0 0.00 0.01 0.00 61 1019.2
20260902063204 64 191 0.0 0.0 0.00 0.01 0.00 62 1019.1
20260902062704 64 191 0.0 0.0 0.00 0.01 0.00 60 1019.0
20260902062204 64 191 0.0 0.0 0.00 0.01 0.00 61 1019.0
20260902061705 64 191 0.0 3.0 0.00 0.01 0.00 61 1019.1
20260902061204 65 217 0.0 0.0 0.00 0.02 0.00 61 1019.1
20260902060705 65 217 0.0 2.0 0.00 0.02 0.00 61 1019.1
20260902055704 65 218 0.0 2.0 0.00 0.02 0.02 61 1019.1
20260902055204 65 218 0.0 0.0 0.00 0.02 0.02 60 1019.1
20260902053704 65 217 0.0 1.0 0.00 0.02 0.02 58 1019.0
20260902053203 65 217 0.0 1.0 0.00 0.02 0.02 58 1019.0
20260902052704 66 218 0.0 0.0 0.00 0.02 0.02 59 1019.1
20260902052204 66 218 0.0 0.0 0.00 0.02 0.02 58 1019.1
20260902051704 66 218 0.0 0.0 0.00 0.02 0.02 58 1019.2
20260902050704 67 217 0.0 0.0 0.00 0.02 0.02 56 1019.2
20260902050204 67 218 0.0 0.0 0.00 0.02 0.02 56 1019.2
20260902045704 67 217 0.0 0.0 0.00 0.02 0.02 55 1019.1
20260902045204 67 218 0.0 0.0 0.00 0.02 0.02 55 1019.2
20260902044704 67 218 0.0 0.0 0.00 0.02 0.02 55 1019.3
20260902044204 68 217 0.0 1.0 0.00 0.02 0.02 54 1019.3
20260902043704 68 218 1.0 2.0 0.00 0.02 0.02 54 1019.3
20260902043204 68 217 0.0 0.0 0.00 0.02 0.02 53 1019.3
20260902042704 68 217 0.0 0.0 0.00 0.02 0.02 54 1019.4
20260902041704 69 217 0.0 0.0 0.00 0.02 0.02 52 1019.4
20260902041204 69 217 0.0 0.0 0.00 0.02 0.02 53 1019.5
20260902040704 69 217 0.0 0.0 0.00 0.02 0.02 53 1019.4
20260902035703 69 217 0.0 0.0 0.00 0.02 0.02 53 1019.4
20260902035204 69 217 0.0 0.0 0.00 0.02 0.02 53 1019.4
20260902034704 69 217 0.0 0.0 0.00 0.02 0.02 52 1019.4
20260902034205 70 217 1.0 3.0 0.00 0.02 0.02 51 1019.3
20260902033704 70 28 0.0 1.0 0.00 0.02 0.02 51 1019.4
20260902033203 70 28 0.0 0.0 0.00 0.02 0.02 50 1019.3
20260902032204 71 28 0.0 1.0 0.00 0.02 0.02 49 1019.3
20260902031704 71 28 0.0 0.0 0.00 0.02 0.02 48 1019.3
20260902031204 72 28 0.0 1.0 0.00 0.02 0.02 48 1019.2
20260902030704 72 28 0.0 0.0 0.00 0.02 0.02 47 1019.2
20260902030204 73 28 0.0 1.0 0.00 0.02 0.02 47 1019.3
20260902025704 73 28 0.0 2.0 0.00 0.02 0.02 45 1019.3
20260902025204 74 28 0.0 0.0 0.00 0.02 0.02 44 1019.2
20260902024703 74 28 0.0 1.0 0.00 0.02 0.02 43 1019.2
20260902024203 75 28 0.0 0.0 0.00 0.03 0.02 42 1019.1
20260902023204 76 28 0.0 0.0 0.00 0.04 0.02 39 1018.8
20260902022704 76 28 1.0 2.0 0.00 0.06 0.02 39 1018.8
20260902021706 77 28 0.0 0.0 0.00 0.10 0.02 37 1018.7
20260902021205 77 28 0.0 0.0 0.00 0.11 0.02 35 1018.6
20260902020705 78 28 0.0 1.0 0.00 0.12 0.02 35 1018.5
20260902015706 78 28 0.0 3.0 0.00 0.15 0.02 34 1018.4
20260902015206 78 28 1.0 3.0 0.00 0.16 0.02 34 1018.5
20260902014705 79 28 1.0 3.0 0.00 0.16 0.02 34 1018.5
20260902013205 79 353 1.0 5.0 0.00 0.16 0.02 33 1018.5
20260902012705 80 13 1.0 3.0 0.00 0.16 0.02 32 1018.5
20260902012206 80 12 2.0 5.0 0.00 0.16 0.02 31 1018.5
20260902011705 80 0 2.0 5.0 0.00 0.16 0.02 30 1018.4
20260902011205 80 12 1.0 3.0 0.00 0.16 0.02 31 1018.3
20260902010705 81 308 1.0 10.0 0.00 0.16 0.02 32 1018.3
20260902010206 81 355 0.0 2.0 0.00 0.16 0.02 32 1018.3
20260902005705 82 355 0.0 5.0 0.00 0.16 0.02 31 1018.1
20260902005205 82 18 0.0 1.0 0.00 0.16 0.02 30 1018.1
20260902004706 82 18 0.0 0.0 0.00 0.16 0.02 32 1018.2
20260902003705 83 18 0.0 0.0 0.00 0.16 0.02 31 1018.1
20260902003206 83 18 0.0 0.0 0.00 0.16 0.02 31 1018.1
20260902002705 83 18 0.0 0.0 0.00 0.16 0.02 31 1018.2
20260902002205 84 18 0.0 0.0 0.00 0.16 0.02 33 1018.2
20260902001205 84 18 1.0 3.0 0.00 0.16 0.02 28 1018.2
20260902000706 84 18 2.0 7.0 0.00 0.16 0.02 28 1018.2
20260902000205 84 48 0.0 2.0 0.00 0.16 0.02 30 1018.2
20260901235705 85 48 1.0 3.0 0.00 0.16 0.02 27 1018.2
20260901235206 85 58 2.0 5.0 0.00 0.16 0.02 27 1018.2
20260901234706 85 36 1.0 3.0 0.00 0.16 0.02 28 1018.2
20260901234206 85 9 2.0 3.0 0.00 0.16 0.02 27 1018.2
20260901233706 86 65 2.0 3.0 0.00 0.16 0.02 26 1018.2
20260901232706 87 342 4.0 7.0 0.00 0.16 0.02 26 1018.2
20260901232205 87 353 2.0 5.0 0.00 0.16 0.02 27 1018.2
20260901231705 87 10 2.0 5.0 0.00 0.16 0.02 26 1018.2
20260901231205 87 68 3.0 7.0 0.00 0.16 0.02 26 1018.2
20260901230705 87 94 1.0 3.0 0.00 0.16 0.02 27 1018.2
20260901230206 86 114 1.0 3.0 0.00 0.16 0.02 28 1018.2
20260901225706 86 53 2.0 5.0 0.00 0.16 0.02 28 1018.2
20260901225205 86 93 1.0 6.0 0.00 0.16 0.02 29 1018.2
20260901224205 86 0 1.0 6.0 0.00 0.16 0.02 28 1018.3
20260901223705 86 5 2.0 3.0 0.00 0.16 0.02 28 1018.3
20260901223205 86 40 2.0 7.0 0.00 0.16 0.02 28 1018.3
20260901222705 86 19 1.0 8.0 0.00 0.16 0.02 30 1018.3
20260901222205 86 351 2.0 5.0 0.00 0.16 0.02 29 1018.4
20260901221706 85 21 3.0 7.0 0.00 0.16 0.02 27 1018.4
20260901221205 85 75 2.0 7.0 0.00 0.16 0.02 28 1018.5
20260901220705 85 49 3.0 9.0 0.00 0.16 0.02 27 1018.5
20260901220205 85 31 2.0 9.0 0.00 0.16 0.02 28 1018.5
20260901215706 85 23 2.0 8.0 0.00 0.16 0.02 28 1018.6
20260901215206 85 30 3.0 8.0 0.00 0.16 0.02 28 1018.6
20260901214705 86 11 4.0 9.0 0.00 0.16 0.02 28 1018.6
20260901214206 86 20 1.0 9.0 0.00 0.16 0.02 28 1018.6
20260901213705 86 5 2.0 6.0 0.00 0.16 0.02 27 1018.7
20260901213206 87 345 2.0 6.0 0.00 0.16 0.02 28 1018.7
20260901212705 87 33 1.0 3.0 0.00 0.16 0.02 29 1018.8
20260901212205 87 25 0.0 3.0 0.00 0.16 0.02 28 1018.7
20260901211705 87 24 2.0 6.0 0.00 0.16 0.02 28 1018.7
20260901210705 86 92 1.0 3.0 0.00 0.16 0.02 29 1018.8
20260901210205 86 90 1.0 2.0 0.00 0.16 0.02 33 1018.8
20260901205705 86 90 1.0 3.0 0.00 0.16 0.02 29 1018.9
20260901205205 86 74 0.0 3.0 0.00 0.16 0.02 30 1018.9
20260901204705 87 40 3.0 7.0 0.00 0.16 0.02 28 1018.9
20260901204205 87 110 1.0 3.0 0.00 0.16 0.02 28 1018.9
20260901203705 87 101 1.0 2.0 0.00 0.16 0.02 32 1018.9
20260901203205 86 136 1.0 3.0 0.00 0.16 0.02 30 1019.0
20260901202705 86 107 1.0 7.0 0.00 0.16 0.02 32 1019.1
20260901202206 86 116 1.0 3.0 0.00 0.16 0.02 32 1019.1
20260901201705 85 136 0.0 3.0 0.00 0.16 0.02 34 1019.2
20260901201205 85 74 1.0 6.0 0.00 0.16 0.02 31 1019.2
20260901200705 84 13 1.0 3.0 0.00 0.16 0.02 32 1019.2
20260901200205 84 13 2.0 5.0 0.00 0.16 0.02 31 1019.3
20260901195705 83 99 1.0 3.0 0.00 0.16 0.02 33 1019.4
20260901194705 82 89 1.0 3.0 0.00 0.16 0.02 33 1019.5
20260901194205 82 93 1.0 3.0 0.00 0.16 0.02 38 1019.5
20260901193705 81 47 2.0 3.0 0.00 0.16 0.02 35 1019.5
20260901192706 80 51 1.0 3.0 0.00 0.16 0.02 38 1019.6
20260901192205 80 64 2.0 3.0 0.00 0.16 0.02 36 1019.6
20260901191705 81 53 1.0 2.0 0.00 0.16 0.02 37 1019.8
20260901191206 81 15 0.0 3.0 0.00 0.16 0.02 38 1019.8
20260901190705 81 65 0.0 3.0 0.00 0.16 0.02 38 1019.8
20260901190205 82 76 0.0 2.0 0.00 0.16 0.02 35 1019.8
20260901185705 82 120 1.0 3.0 0.00 0.16 0.02 36 1019.9
20260901185205 82 136 1.0 5.0 0.00 0.16 0.02 38 1019.9
20260901184205 82 44 2.0 3.0 0.00 0.16 0.02 38 1020.1
20260901183205 81 119 1.0 3.0 0.00 0.16 0.02 40 1020.0
20260901182705 81 133 2.0 3.0 0.00 0.16 0.02 41 1020.1
20260901182205 81 44 2.0 5.0 0.00 0.16 0.02 41 1020.1
20260901181705 81 100 1.0 6.0 0.00 0.16 0.02 42 1020.2
20260901181205 80 149 2.0 7.0 0.00 0.16 0.02 42 1020.3
20260901180705 80 98 2.0 6.0 0.00 0.16 0.02 41 1020.3
20260901180205 80 107 2.0 8.0 0.00 0.16 0.02 41 1020.4
20260901175705 80 118 1.0 5.0 0.00 0.16 0.02 44 1020.4
20260901175205 79 146 2.0 3.0 0.00 0.16 0.02 44 1020.6
20260901174704 79 131 1.0 3.0 0.00 0.16 0.02 44 1020.6
20260901173705 78 124 2.0 6.0 0.00 0.16 0.02 48 1020.7
20260901173205 78 111 1.0 5.0 0.00 0.16 0.02 48 1020.8
20260901172705 77 153 2.0 7.0 0.00 0.16 0.02 47 1020.8
20260901172205 77 159 1.0 5.0 0.00 0.16 0.02 50 1020.9
20260901171204 76 131 1.0 3.0 0.00 0.16 0.02 55 1021.0
20260901170704 75 97 1.0 3.0 0.00 0.16 0.02 54 1021.0
20260901165205 73 178 1.0 2.0 0.00 0.16 0.02 63 1021.0
20260901164705 71 178 0.0 2.0 0.00 0.16 0.02 68 1021.0
20260901163705 69 157 0.0 1.0 0.00 0.16 0.02 80 1021.0
20260901162705 67 273 0.0 2.0 0.00 0.16 0.02 88 1021.1
20260901162205 66 273 0.0 2.0 0.00 0.16 0.02 92 1021.1
20260901161705 65 273 0.0 1.0 0.00 0.16 0.02 94 1021.2
20260901161204 64 273 0.0 1.0 0.00 0.16 0.02 94 1021.1
20260901160706 64 273 0.0 2.0 0.00 0.16 0.02 96 1021.2
20260901160205 63 273 0.0 2.0 0.00 0.16 0.02 96 1021.2
20260901155704 63 273 0.0 2.0 0.00 0.16 0.02 96 1021.1
20260901155205 63 225 0.0 2.0 0.00 0.16 0.02 96 1021.2
20260901154705 63 225 0.0 1.0 0.00 0.16 0.02 97 1021.2
20260901154204 63 225 0.0 0.0 0.00 0.16 0.02 97 1021.2
20260901153705 62 225 0.0 0.0 0.00 0.16 0.02 96 1021.2
20260901152704 62 225 0.0 0.0 0.00 0.16 0.02 96 1021.2
20260901152204 62 225 0.0 0.0 0.00 0.16 0.02 97 1021.2
20260901151705 62 225 0.0 0.0 0.00 0.16 0.02 96 1021.1
20260901151205 61 225 0.0 0.0 0.00 0.16 0.02 96 1021.1
20260901150704 61 225 0.0 0.0 0.00 0.16 0.02 96 1021.0
20260901150205 61 225 0.0 0.0 0.00 0.16 0.02 96 1021.0
20260901145705 61 225 0.0 0.0 0.00 0.16 0.02 96 1021.1
20260901145205 60 225 0.0 0.0 0.00 0.16 0.02 96 1021.1
20260901144204 60 225 0.0 0.0 0.00 0.16 0.02 96 1021.2
20260901143705 60 225 0.0 0.0 0.00 0.16 0.02 96 1021.2
20260901143204 59 225 0.0 0.0 0.00 0.16 0.02 96 1021.2
20260901142705 59 225 0.0 0.0 0.00 0.16 0.02 96 1021.2
20260901142204 59 225 0.0 0.0 0.00 0.16 0.02 96 1021.1
20260901141705 59 225 0.0 0.0 0.00 0.16 0.02 96 1021.1
20260901140704 59 225 0.0 0.0 0.00 0.16 0.02 96 1021.2
20260901135705 58 225 0.0 0.0 0.00 0.16 0.02 95 1021.0
20260901134205 58 225 0.0 0.0 0.00 0.16 0.02 95 1021.0
20260901133704 58 225 0.0 0.0 0.00 0.16 0.02 95 1021.0
20260901133205 58 225 0.0 0.0 0.00 0.16 0.02 95 1021.0
20260901132705 58 225 0.0 0.0 0.00 0.16 0.02 95 1020.9
20260901132204 58 225 0.0 0.0 0.00 0.16 0.02 95 1020.9
20260901131704 58 225 0.0 0.0 0.00 0.16 0.02 95 1020.9
20260901131205 58 225 0.0 0.0 0.00 0.16 0.02 95 1020.7
20260901130204 58 225 0.0 0.0 0.00 0.16 0.02 95 1020.5
20260901125704 58 225 0.0 0.0 0.00 0.16 0.02 95 1020.4
20260901125205 58 225 0.0 0.0 0.00 0.16 0.02 95 1020.3
20260901124705 58 225 0.0 0.0 0.00 0.16 0.02 95 1020.2
20260901123705 58 225 0.0 0.0 0.00 0.16 0.02 95 1020.1
20260901123204 58 225 0.0 0.0 0.00 0.16 0.02 95 1020.0
20260901122704 58 225 0.0 0.0 0.00 0.16 0.02 95 1020.0
20260901122204 58 225 0.0 1.0 0.00 0.16 0.02 95 1019.9
20260901121704 58 225 0.0 0.0 0.00 0.16 0.02 95 1019.9
20260901120705 58 225 0.0 0.0 0.00 0.16 0.02 95 1019.9
20260901115704 58 225 0.0 0.0 0.00 0.16 0.02 95 1020.1
20260901115204 58 225 0.0 0.0 0.00 0.16 0.02 95 1020.2
20260901114704 58 225 0.0 0.0 0.00 0.16 0.02 95 1020.2
20260901114205 58 225 0.0 0.0 0.00 0.16 0.02 95 1020.1
20260901113704 58 225 0.0 0.0 0.00 0.16 0.02 95 1020.1
20260901113204 58 225 0.0 0.0 0.00 0.16 0.02 95 1020.1
20260901112704 58 225 0.0 0.0 0.00 0.16 0.02 94 1020.2
20260901112205 59 225 0.0 0.0 0.00 0.16 0.02 94 1020.1
20260901111704 59 225 0.0 0.0 0.00 0.16 0.02 94 1020.1
20260901111204 59 225 0.0 0.0 0.00 0.16 0.02 94 1020.1
20260901110705 59 225 0.0 0.0 0.00 0.16 0.02 94 1020.3
20260901105704 59 225 0.0 0.0 0.00 0.16 0.02 95 1020.3
20260901105205 59 225 0.0 0.0 0.00 0.16 0.02 95 1020.3
20260901104204 59 225 0.0 0.0 0.00 0.16 0.02 94 1020.3
20260901103705 59 225 0.0 0.0 0.00 0.16 0.02 94 1020.2
20260901103204 59 225 0.0 0.0 0.00 0.16 0.02 94 1020.3
20260901102704 59 225 0.0 0.0 0.00 0.16 0.02 94 1020.3
20260901101204 59 225 0.0 0.0 0.00 0.16 0.02 94 1020.7
20260901100704 59 225 0.0 0.0 0.00 0.16 0.02 94 1020.7
20260901100204 59 225 0.0 0.0 0.00 0.16 0.02 94 1020.7
20260901095704 59 225 0.0 0.0 0.00 0.16 0.02 94 1020.8
20260901095204 59 225 0.0 2.0 0.00 0.16 0.02 94 1021.0
20260901094704 60 225 0.0 1.0 0.00 0.16 0.02 94 1021.0
20260901094205 60 225 0.0 0.0 0.00 0.16 0.02 94 1021.0
20260901093704 60 225 0.0 0.0 0.00 0.16 0.02 94 1021.0
20260901093205 60 225 0.0 1.0 0.00 0.16 0.02 94 1021.1
20260901092704 60 225 0.0 0.0 0.00 0.16 0.02 94 1021.1
20260901092204 60 225 0.0 0.0 0.00 0.16 0.02 94 1021.2
20260901091704 60 225 0.0 0.0 0.00 0.16 0.02 94 1021.2
20260901091204 60 225 0.0 0.0 0.00 0.16 0.02 94 1021.2
20260901090704 61 225 0.0 0.0 0.00 0.16 0.02 94 1021.1